SAS3762 ENVA-EDDH

Flight info

Callsign SAS3762
Flight time 1h 54m
Altitude 39000
Route UTUNA1B UTUNA DCT ALASA M852 EKERN/N0391F230 T905 BOGMU BOGMU5A
Aircraft A319/M-SDE3FGHIRWY/LB1

Departure

Time 2026-05-05 18:50
Airport Trondheim Airport, Værnes (ENVA)

Arrival

Time 2026-05-05 20:44
Airport Hamburg Helmut Schmidt Airport (EDDH)
Time Latitude Longitude Altitude Speed Heading
2026-05-05 18:31 63.45497 10.91579 0 ft 0 kts 180°
2026-05-05 18:37 63.45499 10.91579 0 ft 1 kts 181°
2026-05-05 18:37 63.45513 10.91579 0 ft 2 kts 180°
2026-05-05 18:37 63.45529 10.91579 0 ft 2 kts 180°
2026-05-05 18:38 63.45544 10.91580 0 ft 2 kts 180°
2026-05-05 18:38 63.45558 10.91580 0 ft 2 kts 180°
2026-05-05 18:38 63.45573 10.91580 0 ft 2 kts 180°
2026-05-05 18:38 63.45587 10.91578 0 ft 2 kts 148°
2026-05-05 18:39 63.45597 10.91552 0 ft 2 kts 103°
2026-05-05 18:39 63.45597 10.91519 0 ft 2 kts 88°
2026-05-05 18:39 63.45597 10.91507 0 ft 0 kts 93°
2026-05-05 18:42 63.45596 10.91510 0 ft 1 kts 93°
2026-05-05 18:43 63.45596 10.91578 0 ft 6 kts 89°
2026-05-05 18:43 63.45596 10.91681 2 ft 6 kts 91°
2026-05-05 18:43 63.45596 10.91787 3 ft 7 kts 90°
2026-05-05 18:43 63.45596 10.91934 3 ft 10 kts 91°
2026-05-05 18:44 63.45596 10.92120 4 ft 12 kts 90°
2026-05-05 18:44 63.45595 10.92326 5 ft 14 kts 90°
2026-05-05 18:44 63.45594 10.92540 8 ft 13 kts 90°
2026-05-05 18:44 63.45594 10.92763 10 ft 14 kts 90°
2026-05-05 18:45 63.45593 10.92987 13 ft 14 kts 90°
2026-05-05 18:45 63.45593 10.93208 15 ft 14 kts 91°
2026-05-05 18:45 63.45593 10.93411 21 ft 11 kts 90°
2026-05-05 18:45 63.45592 10.93582 26 ft 9 kts 90°
2026-05-05 18:46 63.45592 10.93701 31 ft 5 kts 90°
2026-05-05 18:46 63.45596 10.93787 34 ft 9 kts 75°
2026-05-05 18:46 63.45639 10.93931 40 ft 10 kts 44°
2026-05-05 18:46 63.45651 10.93957 41 ft 0 kts 44°
2026-05-05 18:47 63.45677 10.94013 43 ft 7 kts 44°
2026-05-05 18:48 63.45714 10.94095 47 ft 9 kts 44°
2026-05-05 18:48 63.45754 10.94235 50 ft 13 kts 82°
2026-05-05 18:48 63.45761 10.94428 55 ft 12 kts 73°
2026-05-05 18:48 63.45770 10.94594 56 ft 4 kts 109°
2026-05-05 18:49 63.45755 10.94560 56 ft 5 kts 278°
2026-05-05 18:49 63.45756 10.94424 55 ft 22 kts 271°
2026-05-05 18:49 63.45761 10.93523 29 ft 96 kts 270°
2026-05-05 18:49 63.45761 10.91547 98 ft 149 kts 271°
2026-05-05 18:50 63.45765 10.89296 895 ft 144 kts 271°
2026-05-05 18:50 63.45764 10.87157 1776 ft 138 kts 272°
2026-05-05 18:50 63.45768 10.85106 2429 ft 137 kts 272°
2026-05-05 18:50 63.45770 10.82844 2877 ft 154 kts 273°
2026-05-05 18:51 63.45777 10.80372 3355 ft 170 kts 272°
2026-05-05 18:51 63.45791 10.77560 3797 ft 193 kts 272°
2026-05-05 18:51 63.45792 10.74483 4396 ft 209 kts 271°
2026-05-05 18:51 63.45787 10.71181 5166 ft 216 kts 271°
2026-05-05 18:52 63.45781 10.67835 5722 ft 217 kts 271°
2026-05-05 18:52 63.45779 10.64486 5960 ft 216 kts 272°
2026-05-05 18:52 63.45782 10.61131 5965 ft 215 kts 272°
2026-05-05 18:52 63.45731 10.57787 5961 ft 216 kts 262°
2026-05-05 18:53 63.45108 10.54724 5957 ft 224 kts 234°
2026-05-05 18:53 63.43855 10.52572 5968 ft 242 kts 207°
2026-05-05 18:53 63.42160 10.51902 5967 ft 256 kts 185°
2026-05-05 18:53 63.40376 10.52074 5963 ft 260 kts 173°
2026-05-05 18:54 63.38742 10.53717 5963 ft 268 kts 143°
2026-05-05 18:54 63.37602 10.57099 5967 ft 282 kts 111°
2026-05-05 18:54 63.37307 10.61430 5977 ft 286 kts 88°
2026-05-05 18:54 63.37367 10.65859 5968 ft 286 kts 86°
2026-05-05 18:55 63.37427 10.70285 5968 ft 287 kts 86°
2026-05-05 18:55 63.37464 10.74666 5972 ft 287 kts 87°
2026-05-05 18:55 63.37404 10.79121 5958 ft 289 kts 99°
2026-05-05 18:55 63.36561 10.83129 5953 ft 288 kts 133°
2026-05-05 18:56 63.34958 10.85643 5961 ft 281 kts 164°
2026-05-05 18:56 63.33057 10.86297 5984 ft 276 kts 183°
2026-05-05 18:56 63.31113 10.86383 6312 ft 287 kts 183°
2026-05-05 18:56 63.29142 10.86495 7399 ft 289 kts 182°
2026-05-05 18:57 63.27182 10.86680 8642 ft 284 kts 181°
2026-05-05 18:57 63.25227 10.86908 9615 ft 286 kts 181°
2026-05-05 18:57 63.23236 10.87130 10451 ft 292 kts 181°
2026-05-05 18:57 63.21203 10.87366 11117 ft 299 kts 181°
2026-05-05 18:58 63.19109 10.87621 11779 ft 308 kts 181°
2026-05-05 18:58 63.16972 10.87882 12646 ft 308 kts 181°
2026-05-05 18:58 63.14845 10.88139 13461 ft 310 kts 182°
2026-05-05 18:58 63.12703 10.87960 14262 ft 309 kts 191°
2026-05-05 18:59 63.10620 10.87083 15015 ft 310 kts 198°
2026-05-05 18:59 63.08526 10.85826 15714 ft 312 kts 199°
2026-05-05 18:59 63.06434 10.84518 16349 ft 318 kts 199°
2026-05-05 18:59 63.04308 10.83194 17070 ft 322 kts 199°
2026-05-05 19:00 63.02145 10.81855 17808 ft 326 kts 199°
2026-05-05 19:00 62.99949 10.80506 18530 ft 330 kts 199°
2026-05-05 19:00 62.97736 10.79152 19218 ft 334 kts 199°
2026-05-05 19:00 62.95505 10.77791 19881 ft 338 kts 199°
2026-05-05 19:01 62.93218 10.76399 20539 ft 342 kts 199°
2026-05-05 19:01 62.90936 10.75015 21182 ft 346 kts 199°
2026-05-05 19:01 62.88611 10.73608 21802 ft 350 kts 199°
2026-05-05 19:01 62.86275 10.72198 22396 ft 353 kts 199°
2026-05-05 19:02 62.83868 10.70972 22972 ft 359 kts 194°
2026-05-05 19:02 62.81394 10.70193 23533 ft 365 kts 189°
2026-05-05 19:02 62.78830 10.69820 24085 ft 369 kts 186°
2026-05-05 19:02 62.76285 10.69531 24616 ft 373 kts 186°
2026-05-05 19:03 62.73674 10.69243 25083 ft 376 kts 186°
2026-05-05 19:03 62.71055 10.68951 25488 ft 380 kts 187°
2026-05-05 19:03 62.68426 10.68657 25898 ft 382 kts 187°
2026-05-05 19:03 62.65790 10.68358 26328 ft 385 kts 187°
2026-05-05 19:04 62.63102 10.68052 26728 ft 387 kts 187°
2026-05-05 19:04 62.60415 10.67746 27108 ft 390 kts 188°
2026-05-05 19:04 62.57707 10.67434 27480 ft 392 kts 188°
2026-05-05 19:04 62.54992 10.67120 27859 ft 394 kts 188°
2026-05-05 19:05 62.52257 10.66805 28215 ft 395 kts 188°
2026-05-05 19:05 62.49534 10.66494 28564 ft 397 kts 188°
2026-05-05 19:05 62.46782 10.66184 28916 ft 399 kts 188°
2026-05-05 19:05 62.44020 10.65873 29258 ft 401 kts 189°
2026-05-05 19:06 62.41250 10.65557 29577 ft 403 kts 189°
2026-05-05 19:06 62.38456 10.65239 29898 ft 405 kts 189°
2026-05-05 19:06 62.35645 10.64923 30203 ft 407 kts 189°
2026-05-05 19:06 62.32833 10.64604 30500 ft 409 kts 189°
2026-05-05 19:07 62.29982 10.64278 30811 ft 410 kts 189°
2026-05-05 19:07 62.27134 10.63954 31112 ft 413 kts 189°
2026-05-05 19:07 62.24300 10.63632 31398 ft 415 kts 189°
2026-05-05 19:07 62.21427 10.63307 31688 ft 417 kts 189°
2026-05-05 19:08 62.18503 10.62976 31978 ft 419 kts 189°
2026-05-05 19:08 62.15599 10.62650 32250 ft 421 kts 189°
2026-05-05 19:08 62.12706 10.62325 32517 ft 423 kts 189°
2026-05-05 19:08 62.09750 10.61995 32778 ft 425 kts 189°
2026-05-05 19:09 62.06784 10.61665 33036 ft 428 kts 189°
2026-05-05 19:09 62.03812 10.61335 33307 ft 430 kts 189°
2026-05-05 19:09 62.00840 10.61007 33617 ft 432 kts 189°
2026-05-05 19:09 61.97865 10.60676 33913 ft 433 kts 189°
2026-05-05 19:10 61.94855 10.60344 34197 ft 436 kts 189°
2026-05-05 19:10 61.91813 10.60007 34475 ft 438 kts 189°
2026-05-05 19:10 61.88810 10.59677 34737 ft 440 kts 189°
2026-05-05 19:10 61.85758 10.59343 35086 ft 439 kts 188°
2026-05-05 19:11 61.82721 10.59013 35426 ft 439 kts 189°
2026-05-05 19:11 61.79674 10.58679 35722 ft 439 kts 188°
2026-05-05 19:11 61.76642 10.58348 36006 ft 439 kts 188°
2026-05-05 19:11 61.73597 10.58015 36287 ft 440 kts 188°
2026-05-05 19:12 61.70593 10.57689 36549 ft 440 kts 188°
2026-05-05 19:12 61.67550 10.57357 36808 ft 440 kts 188°
2026-05-05 19:12 61.64471 10.57026 37308 ft 441 kts 189°
2026-05-05 19:12 61.61438 10.56709 37856 ft 441 kts 189°
2026-05-05 19:13 61.58393 10.56383 38654 ft 439 kts 189°
2026-05-05 19:13 61.55333 10.56045 39027 ft 440 kts 189°
2026-05-05 19:13 61.52316 10.55708 38800 ft 439 kts 188°
2026-05-05 19:13 61.49291 10.55382 38503 ft 439 kts 188°
2026-05-05 19:14 61.46226 10.55057 38356 ft 436 kts 188°
2026-05-05 19:14 61.43235 10.54743 38315 ft 432 kts 188°
2026-05-05 19:14 61.40262 10.54429 38523 ft 428 kts 188°
2026-05-05 19:14 61.37326 10.54117 38730 ft 428 kts 188°
2026-05-05 19:15 61.31318 10.53471 38861 ft 436 kts 188°
2026-05-05 19:15 61.25436 10.52842 38840 ft 446 kts 188°
2026-05-05 19:16 61.19732 10.52243 38763 ft 449 kts 188°
2026-05-05 19:16 61.13513 10.51596 38813 ft 449 kts 188°
2026-05-05 19:17 61.07290 10.50951 38881 ft 449 kts 188°
2026-05-05 19:17 61.01122 10.50310 38893 ft 448 kts 188°
2026-05-05 19:18 60.94903 10.49663 38902 ft 448 kts 188°
2026-05-05 19:18 60.88728 10.49024 38893 ft 448 kts 188°
2026-05-05 19:19 60.82514 10.48385 38884 ft 447 kts 188°
2026-05-05 19:19 60.76329 10.47751 38877 ft 447 kts 188°
2026-05-05 19:20 60.70148 10.47121 38870 ft 446 kts 188°
2026-05-05 19:20 60.63980 10.46493 38876 ft 446 kts 188°
2026-05-05 19:21 60.57811 10.45867 38879 ft 446 kts 188°
2026-05-05 19:21 60.51641 10.45243 38882 ft 446 kts 189°
2026-05-05 19:22 60.45482 10.44623 38883 ft 446 kts 189°
2026-05-05 19:22 60.39275 10.44001 38882 ft 445 kts 189°
2026-05-05 19:23 60.33141 10.43389 38880 ft 445 kts 189°
2026-05-05 19:23 60.26945 10.42772 38876 ft 445 kts 189°
2026-05-05 19:24 60.20803 10.42164 38876 ft 445 kts 189°
2026-05-05 19:24 60.14626 10.41553 38882 ft 445 kts 189°
2026-05-05 19:25 60.08477 10.40947 38889 ft 445 kts 189°
2026-05-05 19:25 60.02326 10.40344 38896 ft 444 kts 189°
2026-05-05 19:26 59.96190 10.39751 38902 ft 444 kts 189°
2026-05-05 19:26 59.90025 10.39138 38918 ft 444 kts 189°
2026-05-05 19:27 59.83865 10.38519 38930 ft 444 kts 189°
2026-05-05 19:27 59.77734 10.37929 38923 ft 444 kts 189°
2026-05-05 19:28 59.71606 10.37324 38927 ft 444 kts 189°
2026-05-05 19:28 59.65486 10.36749 38932 ft 444 kts 189°
2026-05-05 19:29 59.59337 10.36166 38934 ft 443 kts 189°
2026-05-05 19:29 59.53221 10.35585 38936 ft 443 kts 189°
2026-05-05 19:30 59.47091 10.35004 38936 ft 443 kts 189°
2026-05-05 19:30 59.40959 10.34425 38939 ft 443 kts 188°
2026-05-05 19:31 59.34808 10.33846 38940 ft 443 kts 188°
2026-05-05 19:31 59.28663 10.33270 38944 ft 442 kts 188°
2026-05-05 19:32 59.22570 10.32700 38945 ft 443 kts 188°
2026-05-05 19:32 59.16418 10.32124 38949 ft 442 kts 188°
2026-05-05 19:33 59.10315 10.31558 38951 ft 442 kts 188°
2026-05-05 19:33 59.04230 10.30995 38954 ft 441 kts 188°
2026-05-05 19:34 58.98111 10.30431 38956 ft 441 kts 188°
2026-05-05 19:35 58.88974 10.29594 38959 ft 440 kts 188°
2026-05-05 19:35 58.82852 10.29036 38960 ft 440 kts 188°
2026-05-05 19:36 58.76796 10.28485 38962 ft 439 kts 188°
2026-05-05 19:36 58.70704 10.27933 38963 ft 439 kts 188°
2026-05-05 19:37 58.64639 10.27385 38965 ft 438 kts 188°
2026-05-05 19:37 58.58593 10.26841 38966 ft 438 kts 188°
2026-05-05 19:38 58.52512 10.26291 38967 ft 437 kts 188°
2026-05-05 19:38 58.46445 10.25747 38969 ft 437 kts 188°
2026-05-05 19:39 58.40424 10.25209 38972 ft 437 kts 188°
2026-05-05 19:39 58.34369 10.24671 38976 ft 437 kts 188°
2026-05-05 19:40 58.28313 10.24135 38978 ft 436 kts 188°
2026-05-05 19:40 58.22311 10.23606 38979 ft 435 kts 188°
2026-05-05 19:41 58.16262 10.23075 38979 ft 435 kts 188°
2026-05-05 19:41 58.10250 10.22549 38978 ft 435 kts 188°
2026-05-05 19:42 58.04232 10.22023 38978 ft 434 kts 188°
2026-05-05 19:42 57.98186 10.21496 38984 ft 434 kts 188°
2026-05-05 19:43 57.92210 10.20978 38989 ft 434 kts 188°
2026-05-05 19:43 57.86171 10.20456 38989 ft 434 kts 188°
2026-05-05 19:44 57.80182 10.19940 38985 ft 434 kts 188°
2026-05-05 19:44 57.74150 10.19422 38986 ft 434 kts 188°
2026-05-05 19:45 57.68161 10.18912 38989 ft 434 kts 188°
2026-05-05 19:45 57.62139 10.18400 38992 ft 434 kts 188°
2026-05-05 19:46 57.56107 10.17887 38995 ft 434 kts 188°
2026-05-05 19:46 57.50111 10.17379 38998 ft 433 kts 188°
2026-05-05 19:47 57.44099 10.16872 39002 ft 433 kts 188°
2026-05-05 19:47 57.38117 10.16369 39005 ft 433 kts 188°
2026-05-05 19:48 57.32112 10.15865 39009 ft 433 kts 188°
2026-05-05 19:48 57.26120 10.15363 39013 ft 433 kts 188°
2026-05-05 19:49 57.20137 10.14865 39016 ft 432 kts 188°
2026-05-05 19:49 57.14154 10.14369 39019 ft 431 kts 188°
2026-05-05 19:50 57.08174 10.13873 39022 ft 431 kts 188°
2026-05-05 19:50 57.02220 10.13381 39023 ft 431 kts 188°
2026-05-05 19:51 56.96216 10.12888 39025 ft 431 kts 188°
2026-05-05 19:51 56.90267 10.12400 39025 ft 430 kts 188°
2026-05-05 19:52 56.84290 10.11912 39025 ft 430 kts 188°
2026-05-05 19:52 56.78347 10.11428 39025 ft 429 kts 188°
2026-05-05 19:53 56.72425 10.10947 39030 ft 428 kts 188°
2026-05-05 19:53 56.66467 10.10464 39028 ft 428 kts 188°
2026-05-05 19:54 56.60562 10.09987 39024 ft 427 kts 188°
2026-05-05 19:54 56.54644 10.09510 39019 ft 427 kts 188°
2026-05-05 19:55 56.48738 10.09036 39013 ft 426 kts 188°
2026-05-05 19:55 56.42849 10.08565 39008 ft 426 kts 188°
2026-05-05 19:56 56.36942 10.08094 39003 ft 425 kts 188°
2026-05-05 19:56 56.31053 10.07625 38999 ft 425 kts 188°
2026-05-05 19:57 56.25157 10.07159 38996 ft 425 kts 188°
2026-05-05 19:57 56.19237 10.06690 38994 ft 425 kts 188°
2026-05-05 19:58 56.13360 10.06227 38992 ft 424 kts 188°
2026-05-05 19:58 56.07507 10.05768 38990 ft 424 kts 188°
2026-05-05 19:59 56.01605 10.05306 38987 ft 424 kts 188°
2026-05-05 19:59 55.95724 10.04847 38984 ft 424 kts 188°
2026-05-05 20:00 55.89864 10.04391 38982 ft 424 kts 188°
2026-05-05 20:00 55.83987 10.03935 38982 ft 424 kts 188°
2026-05-05 20:01 55.78116 10.03481 38982 ft 424 kts 188°
2026-05-05 20:01 55.72213 10.03026 38984 ft 424 kts 188°
2026-05-05 20:02 55.66348 10.02577 38984 ft 424 kts 188°
2026-05-05 20:02 55.60481 10.02128 38983 ft 424 kts 188°
2026-05-05 20:03 55.54614 10.01680 38962 ft 424 kts 187°
2026-05-05 20:03 55.51705 10.01459 38771 ft 423 kts 187°
2026-05-05 20:03 55.48733 10.01234 38526 ft 421 kts 188°
2026-05-05 20:03 55.45824 10.01015 38184 ft 419 kts 188°
2026-05-05 20:04 55.42959 10.00798 37720 ft 419 kts 188°
2026-05-05 20:04 55.40040 10.00575 37171 ft 421 kts 188°
2026-05-05 20:04 55.37122 10.00353 36565 ft 424 kts 188°
2026-05-05 20:04 55.34177 10.00128 35922 ft 425 kts 188°
2026-05-05 20:05 55.31249 9.99909 35286 ft 427 kts 188°
2026-05-05 20:05 55.28307 9.99690 34649 ft 428 kts 188°
2026-05-05 20:05 55.25344 9.99470 34108 ft 425 kts 188°
2026-05-05 20:05 55.22441 9.99259 33659 ft 418 kts 188°
2026-05-05 20:06 55.19557 9.99049 33271 ft 410 kts 188°
2026-05-05 20:06 55.16706 9.98839 32765 ft 407 kts 188°
2026-05-05 20:06 55.13922 9.98631 32280 ft 402 kts 188°
2026-05-05 20:06 55.11139 9.98422 31739 ft 398 kts 188°
2026-05-05 20:07 55.08412 9.98218 31274 ft 392 kts 189°
2026-05-05 20:07 55.05729 9.98019 30814 ft 387 kts 189°
2026-05-05 20:07 55.03083 9.97823 30367 ft 381 kts 189°
2026-05-05 20:07 55.00444 9.97626 29960 ft 375 kts 189°
2026-05-05 20:08 54.97848 9.97432 29570 ft 373 kts 189°
2026-05-05 20:08 54.95278 9.97239 29174 ft 370 kts 189°
2026-05-05 20:08 54.92746 9.97050 28779 ft 367 kts 189°
2026-05-05 20:08 54.90221 9.96862 28376 ft 365 kts 189°
2026-05-05 20:09 54.87665 9.96672 27959 ft 363 kts 189°
2026-05-05 20:09 54.85178 9.96489 27548 ft 360 kts 189°
2026-05-05 20:09 54.82690 9.96282 27125 ft 356 kts 191°
2026-05-05 20:09 54.80235 9.95856 26698 ft 351 kts 194°
2026-05-05 20:10 54.77865 9.95182 26272 ft 347 kts 197°
2026-05-05 20:10 54.75525 9.94414 25847 ft 344 kts 197°
2026-05-05 20:10 54.73181 9.93654 25414 ft 342 kts 197°
2026-05-05 20:10 54.70873 9.92905 24984 ft 339 kts 197°
2026-05-05 20:11 54.68544 9.92149 24549 ft 337 kts 197°
2026-05-05 20:11 54.66242 9.91401 24119 ft 335 kts 196°
2026-05-05 20:11 54.63967 9.90665 23696 ft 333 kts 196°
2026-05-05 20:11 54.61734 9.89949 23277 ft 330 kts 196°
2026-05-05 20:12 54.59467 9.89224 22930 ft 333 kts 196°
2026-05-05 20:12 54.57184 9.88491 22849 ft 338 kts 196°
2026-05-05 20:12 54.54868 9.87750 22836 ft 340 kts 195°
2026-05-05 20:12 54.52538 9.87061 22837 ft 343 kts 191°
2026-05-05 20:13 54.50108 9.87241 22837 ft 354 kts 174°
2026-05-05 20:13 54.47776 9.88580 22843 ft 362 kts 162°
2026-05-05 20:13 54.45504 9.90411 22631 ft 361 kts 160°
2026-05-05 20:13 54.43227 9.92295 21989 ft 370 kts 160°
2026-05-05 20:14 54.40894 9.94223 21411 ft 373 kts 160°
2026-05-05 20:14 54.38569 9.96138 21002 ft 371 kts 160°
2026-05-05 20:14 54.36277 9.98018 20558 ft 367 kts 160°
2026-05-05 20:14 54.33979 9.99892 20064 ft 364 kts 160°
2026-05-05 20:15 54.31701 10.01743 19574 ft 362 kts 160°
2026-05-05 20:15 54.29450 10.03567 19094 ft 360 kts 160°
2026-05-05 20:15 54.27201 10.05386 18624 ft 357 kts 160°
2026-05-05 20:15 54.24969 10.07190 18166 ft 355 kts 160°
2026-05-05 20:16 54.22739 10.08990 17711 ft 353 kts 160°
2026-05-05 20:16 54.20539 10.10763 17262 ft 350 kts 160°
2026-05-05 20:16 54.18366 10.12513 16822 ft 348 kts 160°
2026-05-05 20:16 54.16180 10.14270 16381 ft 346 kts 159°
2026-05-05 20:17 54.14007 10.16015 15943 ft 344 kts 159°
2026-05-05 20:17 54.11859 10.17738 15509 ft 342 kts 159°
2026-05-05 20:17 54.09733 10.19441 15079 ft 339 kts 159°
2026-05-05 20:17 54.07618 10.21136 14608 ft 335 kts 159°
2026-05-05 20:18 54.05519 10.22813 14093 ft 333 kts 159°
2026-05-05 20:18 54.03445 10.24466 13619 ft 333 kts 159°
2026-05-05 20:18 54.01363 10.26125 13174 ft 328 kts 159°
2026-05-05 20:18 53.99314 10.27741 12670 ft 324 kts 160°
2026-05-05 20:19 53.97188 10.29027 12112 ft 321 kts 168°
2026-05-05 20:19 53.95020 10.29872 11633 ft 318 kts 172°
2026-05-05 20:19 53.92883 10.30589 11165 ft 317 kts 172°
2026-05-05 20:19 53.90743 10.31284 10938 ft 305 kts 172°
2026-05-05 20:20 53.88674 10.31960 10913 ft 301 kts 172°
2026-05-05 20:20 53.86619 10.32629 10904 ft 302 kts 172°
2026-05-05 20:20 53.84591 10.33293 10825 ft 297 kts 171°
2026-05-05 20:20 53.82569 10.33962 10418 ft 297 kts 171°
2026-05-05 20:21 53.80555 10.34632 10174 ft 292 kts 171°
2026-05-05 20:21 53.78597 10.35281 9946 ft 288 kts 171°
2026-05-05 20:21 53.76614 10.35934 9915 ft 289 kts 171°
2026-05-05 20:21 53.74662 10.36576 9906 ft 280 kts 171°
2026-05-05 20:22 53.72790 10.37162 9899 ft 266 kts 175°
2026-05-05 20:22 53.71057 10.36753 9886 ft 251 kts 209°
2026-05-05 20:22 53.69758 10.34827 9912 ft 249 kts 233°
2026-05-05 20:22 53.68700 10.32514 9914 ft 249 kts 233°
2026-05-05 20:23 53.67624 10.30212 9914 ft 250 kts 232°
2026-05-05 20:23 53.66549 10.27964 9914 ft 250 kts 232°
2026-05-05 20:23 53.65436 10.25669 9914 ft 250 kts 231°
2026-05-05 20:23 53.64346 10.23436 9850 ft 247 kts 231°
2026-05-05 20:24 53.63253 10.21207 9552 ft 247 kts 231°
2026-05-05 20:24 53.62162 10.18984 9251 ft 247 kts 231°
2026-05-05 20:24 53.61079 10.16781 8975 ft 246 kts 231°
2026-05-05 20:24 53.59996 10.14579 8685 ft 245 kts 231°
2026-05-05 20:25 53.58913 10.12380 8388 ft 245 kts 231°
2026-05-05 20:25 53.57830 10.10180 8091 ft 244 kts 231°
2026-05-05 20:25 53.56739 10.07968 7794 ft 244 kts 231°
2026-05-05 20:25 53.55660 10.05780 7504 ft 244 kts 231°
2026-05-05 20:26 53.54579 10.03594 7215 ft 243 kts 231°
2026-05-05 20:26 53.53502 10.01415 6928 ft 243 kts 231°
2026-05-05 20:26 53.52436 9.99262 6644 ft 242 kts 231°
2026-05-05 20:26 53.51345 9.97061 6355 ft 242 kts 231°
2026-05-05 20:27 53.50276 9.94906 6072 ft 241 kts 231°
2026-05-05 20:27 53.49208 9.92754 5790 ft 241 kts 231°
2026-05-05 20:27 53.48126 9.90576 5506 ft 240 kts 231°
2026-05-05 20:27 53.47058 9.88428 5228 ft 240 kts 231°
2026-05-05 20:28 53.46000 9.86300 5007 ft 239 kts 231°
2026-05-05 20:28 53.44934 9.84151 5004 ft 249 kts 231°
2026-05-05 20:28 53.43900 9.81652 4994 ft 268 kts 248°
2026-05-05 20:28 53.43577 9.78597 4991 ft 265 kts 276°
2026-05-05 20:29 53.44130 9.75786 4987 ft 247 kts 306°
2026-05-05 20:29 53.45322 9.73959 4985 ft 228 kts 335°
2026-05-05 20:29 53.46797 9.73457 4982 ft 211 kts
2026-05-05 20:29 53.48084 9.74424 4989 ft 201 kts 44°
2026-05-05 20:30 53.48979 9.76222 5000 ft 201 kts 46°
2026-05-05 20:30 53.50122 9.77491 4998 ft 201 kts 20°
2026-05-05 20:30 53.51494 9.77962 4989 ft 202 kts 355°
2026-05-05 20:30 53.52879 9.77648 5000 ft 202 kts 351°
2026-05-05 20:31 53.54189 9.76821 4998 ft 204 kts 330°
2026-05-05 20:31 53.55359 9.75479 4997 ft 205 kts 325°
2026-05-05 20:31 53.56515 9.74017 4998 ft 205 kts 324°
2026-05-05 20:31 53.57616 9.72540 4996 ft 206 kts 316°
2026-05-05 20:32 53.58297 9.70421 4991 ft 210 kts 280°
2026-05-05 20:32 53.58109 9.68008 4997 ft 213 kts 246°
2026-05-05 20:32 53.57360 9.65885 5002 ft 214 kts 236°
2026-05-05 20:32 53.56495 9.63849 5000 ft 214 kts 234°
2026-05-05 20:33 53.55604 9.61849 4999 ft 214 kts 233°
2026-05-05 20:33 53.54663 9.59887 4998 ft 214 kts 232°
2026-05-05 20:33 53.53720 9.57960 4998 ft 214 kts 231°
2026-05-05 20:33 53.52767 9.56023 4998 ft 214 kts 231°
2026-05-05 20:34 53.51833 9.54126 4997 ft 214 kts 231°
2026-05-05 20:34 53.50875 9.52182 4997 ft 214 kts 231°
2026-05-05 20:34 53.49935 9.50275 4997 ft 214 kts 231°
2026-05-05 20:34 53.48801 9.48664 4939 ft 212 kts 203°
2026-05-05 20:35 53.47367 9.48350 4667 ft 210 kts 166°
2026-05-05 20:35 53.46045 9.49294 4405 ft 207 kts 148°
2026-05-05 20:35 53.44826 9.50580 4136 ft 207 kts 145°
2026-05-05 20:35 53.43651 9.51899 4005 ft 205 kts 143°
2026-05-05 20:36 53.42699 9.53626 3988 ft 202 kts 111°
2026-05-05 20:36 53.42534 9.55905 3998 ft 198 kts 78°
2026-05-05 20:36 53.42983 9.58076 4001 ft 196 kts 60°
2026-05-05 20:36 53.43723 9.59987 3999 ft 195 kts 50°
2026-05-05 20:37 53.44605 9.61683 3917 ft 191 kts 47°
2026-05-05 20:37 53.45495 9.63319 3614 ft 193 kts 47°
2026-05-05 20:37 53.46381 9.64990 3373 ft 192 kts 48°
2026-05-05 20:37 53.47253 9.66690 3122 ft 191 kts 49°
2026-05-05 20:38 53.48095 9.68372 3010 ft 190 kts 49°
2026-05-05 20:38 53.48940 9.70084 3013 ft 190 kts 50°
2026-05-05 20:38 53.49775 9.71802 3005 ft 190 kts 50°
2026-05-05 20:38 53.50600 9.73510 2993 ft 183 kts 50°
2026-05-05 20:39 53.51378 9.75109 2981 ft 172 kts 50°
2026-05-05 20:39 53.52127 9.76645 2989 ft 170 kts 50°
2026-05-05 20:39 53.52886 9.78200 2880 ft 169 kts 50°
2026-05-05 20:39 53.53615 9.79691 2706 ft 163 kts 50°
2026-05-05 20:40 53.54320 9.81141 2467 ft 161 kts 50°
2026-05-05 20:40 53.55032 9.82590 2227 ft 158 kts 50°
2026-05-05 20:40 53.55725 9.83997 1998 ft 155 kts 49°
2026-05-05 20:40 53.56393 9.85353 1767 ft 145 kts 49°
2026-05-05 20:41 53.57011 9.86599 1580 ft 134 kts 49°
2026-05-05 20:41 53.57590 9.87771 1409 ft 128 kts 49°
2026-05-05 20:41 53.58147 9.88901 1235 ft 122 kts 49°
2026-05-05 20:41 53.58685 9.89995 1075 ft 120 kts 49°
2026-05-05 20:42 53.59215 9.91072 917 ft 120 kts 50°
2026-05-05 20:42 53.59743 9.92145 756 ft 120 kts 50°
2026-05-05 20:42 53.60280 9.93235 592 ft 120 kts 50°
2026-05-05 20:42 53.60811 9.94311 426 ft 119 kts 49°
2026-05-05 20:43 53.61335 9.95387 284 ft 119 kts 50°
2026-05-05 20:43 53.61858 9.96448 108 ft 118 kts 49°
2026-05-05 20:43 53.62373 9.97478 29 ft 108 kts 49°
2026-05-05 20:43 53.62750 9.98235 35 ft 59 kts 52°
2026-05-05 20:44 53.62919 9.98584 38 ft 29 kts 49°
2026-05-05 20:44 53.63046 9.98840 36 ft 28 kts 56°
2026-05-05 20:44 53.63089 9.99128 35 ft 19 kts 91°
2026-05-05 20:44 53.63085 9.99258 33 ft 11 kts 93°
2026-05-05 20:45 53.63138 9.99499 31 ft 9 kts 52°
2026-05-05 20:45 53.63183 9.99594 31 ft 10 kts 51°
2026-05-05 20:46 53.63205 9.99639 31 ft 0 kts 50°
2026-05-05 20:46 53.63207 9.99642 31 ft 1 kts 49°
2026-05-05 20:47 53.63222 9.99676 31 ft 5 kts 62°
2026-05-05 20:47 53.63213 9.99759 29 ft 9 kts 137°
2026-05-05 20:47 53.63145 9.99827 28 ft 13 kts 152°
2026-05-05 20:47 53.63064 9.99897 30 ft 13 kts 152°
2026-05-05 20:48 53.62989 9.99963 33 ft 11 kts 153°
2026-05-05 20:48 53.62919 10.00023 35 ft 11 kts 154°
2026-05-05 20:48 53.62852 10.00064 36 ft 8 kts 153°
2026-05-05 20:48 53.62815 10.00098 37 ft 3 kts 135°
2026-05-05 20:49 53.62815 10.00133 38 ft 3 kts 60°
2026-05-05 20:49 53.62828 10.00172 38 ft 3 kts 62°
2026-05-05 20:49 53.62841 10.00210 39 ft 0 kts 63°
2026-05-05 20:49 53.62841 10.00213 39 ft 0 kts 63°